313  
AXUS43 KGID 210902  
MISGRI  
 
GID CWA HOURLY WEATHER ROUNDUP  
NATIONAL WEATHER SERVICE HASTINGS NE  
400 AM CDT SUN JUL 21 2019  
 
NOTE: "FAIR" INDICATES FEW OR NO CLOUDS BELOW 12,000 FEET WITH NO  
SIGNIFICANT WEATHER AND/OR OBSTRUCTIONS TO VISIBILITY.  
   
..SOUTH CENTRAL NEBRASKA
 
 
 
CITY SKY/WX TMP DP RH WIND PRES REMARKS  
GRAND ISLAND TSTM 69 65 86 N10 29.93F  
KEARNEY CLOUDY 68 65 90 NE12 29.96R  
HASTINGS CLOUDY 71 67 87 NE14G24 29.92F  
ORD CLOUDY 67 63 87 E8 29.96F  
YORK TSTM 68 68 100 NE23G32 29.91F VSB 3/4  
AURORA RAIN 68 67 98 NE14 29.92S  
LEXINGTON CLOUDY 66 65 96 NW17G23 30.07R  
HOLDREGE CLOUDY 69 67 93 NE9 29.94S  
HEBRON CLOUDY 74 68 80 E12G18 29.89F  
   
..NEBRASKA PANHANDLE
 
 
 
CITY SKY/WX TMP DP RH WIND PRES REMARKS  
CHADRON CLOUDY 65 58 78 SE9 30.02F  
ALLIANCE CLOUDY 64 59 83 SE15 30.04F  
SCOTTSBLUFF MOCLDY 64 61 90 S8 30.04R  
SIDNEY CLOUDY 64 58 80 E14G22 30.08F  
   
..WESTERN AND NORTH CENTRAL NEBRASKA
 
 
 
CITY SKY/WX TMP DP RH WIND PRES REMARKS  
VALENTINE CLOUDY 66 60 81 E5 30.06S  
AINSWORTH CLOUDY 64 64 100 CALM 30.06R  
ONEILL FAIR 66 65 94 E6 30.01F  
BROKEN BOW LGT RAIN 68 65 90 CALM 30.03R  
IMPERIAL LGT RAIN 63 61 93 NE10 30.02F  
NORTH PLATTE RAIN 66 63 90 NW18G25 30.07F  
MCCOOK LGT RAIN 67 65 93 N16 29.95F  
   
..EASTERN NEBRASKA
 
 
 
CITY SKY/WX TMP DP RH WIND PRES REMARKS  
NORFOLK CLOUDY 67 62 84 E13G21 29.96F  
SO SIOUX CITY MOCLDY 65 63 93 SE5 29.99S  
TEKAMAH CLOUDY 68 62 81 NE10 29.95F  
COLUMBUS CLOUDY 68 63 84 NE14 29.95F  
ALBION CLOUDY 68 63 85 E12G18 29.98S  
OMAHA EPPLEY CLOUDY 71 65 81 NE6 29.93F THUNDER  
OFFUTT AFB TSTM 72 70 94 E6 29.97S  
MILLARD CLOUDY 72 69 89 E3 29.93S  
LINCOLN TSTM 71 69 93 N10G23 29.95R FOG  
NEBRASKA CITY TSTM 68 67 98 S13 29.93F  
BEATRICE CLOUDY 76 71 85 E10G18 29.88F  
FALLS CITY TSTM 72 69 90 NE10G16 29.97R FOG  
   
..NORTHERN KANSAS
 
 
 
CITY SKY/WX TMP DP RH WIND PRES REMARKS  
GOODLAND LGT RAIN 66 64 93 CALM 30.01F  
HILL CITY PTCLDY 71 68 90 N13 29.92F  
PHILLIPSBURG CLOUDY 73 70 88 NW7 29.92F  
OBERLIN FAIR 67 67 100 N15 29.95F  
SMITH CENTER N/A 72 70 94 NE6 29.89S  
HAYS CLEAR 77 71 82 N15 29.88S  
RUSSELL CLEAR 79 65 62 SW10 29.85F  
CONCORDIA CLEAR 76 73 91 E6 29.84F  
SALINA CLEAR 76 67 73 S8 29.85F  
TOPEKA CLOUDY 75 70 84 E18G31 29.97R  
 
CLICK HERE TO GO TO PREVIOUS BULLETINS.

The Nexlab NE Page
The Nexlab KS Page Main Text Page